TimeEDT,TemperatureF,Dew PointF,Humidity,Sea Level PressureIn,VisibilityMPH,Wind Direction,Wind SpeedMPH,Gust SpeedMPH,PrecipitationIn,Events,Conditions,WindDirDegrees,DateUTC
12:06 AM,46.4,44.6,93,30.40,8.0,Calm,Calm,-,N/A,,Scattered Clouds,0,2013-10-14 04:06:00
12:53 AM,45.0,42.1,90,30.39,6.0,Calm,Calm,-,N/A,,Clear,0,2013-10-14 04:53:00
1:42 AM,44.6,41.0,87,30.38,1.8,Calm,Calm,-,N/A,,Clear,0,2013-10-14 05:42:00
1:51 AM,42.8,39.2,87,30.38,3.0,Calm,Calm,-,N/A,,Clear,0,2013-10-14 05:51:00
1:53 AM,42.1,39.0,89,30.38,4.0,Calm,Calm,-,N/A,,Clear,0,2013-10-14 05:53:00
2:53 AM,41.0,39.0,93,30.37,2.5,Calm,Calm,-,N/A,,Clear,0,2013-10-14 06:53:00
3:07 AM,41.0,37.4,87,30.37,8.0,Calm,Calm,-,N/A,,Clear,0,2013-10-14 07:07:00
3:34 AM,41.0,37.4,87,30.37,1.5,Calm,Calm,-,N/A,,Clear,0,2013-10-14 07:34:00
3:44 AM,41.0,37.4,87,30.37,4.0,Calm,Calm,-,N/A,,Clear,0,2013-10-14 07:44:00
3:53 AM,41.0,37.9,89,30.37,7.0,Calm,Calm,-,N/A,,Clear,0,2013-10-14 07:53:00
4:53 AM,39.9,37.0,89,30.38,8.0,Calm,Calm,-,N/A,,Clear,0,2013-10-14 08:53:00
5:53 AM,39.0,36.0,89,30.38,2.5,Calm,Calm,-,N/A,,Clear,0,2013-10-14 09:53:00
6:02 AM,39.2,35.6,87,30.37,7.0,Calm,Calm,-,N/A,,Clear,0,2013-10-14 10:02:00
6:32 AM,39.2,35.6,87,30.38,7.0,Calm,Calm,-,N/A,,Scattered Clouds,0,2013-10-14 10:32:00
6:50 AM,39.2,35.6,87,30.38,6.0,Calm,Calm,-,N/A,,Mostly Cloudy,0,2013-10-14 10:50:00
6:53 AM,39.0,36.0,89,30.38,6.0,Calm,Calm,-,N/A,,Mostly Cloudy,0,2013-10-14 10:53:00
7:20 AM,37.4,35.6,93,30.37,1.0,Calm,Calm,-,N/A,,Overcast,0,2013-10-14 11:20:00
7:27 AM,37.4,35.6,93,30.38,0.2,Calm,Calm,-,N/A,Fog,Fog,0,2013-10-14 11:27:00
7:49 AM,39.2,37.4,93,30.38,1.5,Calm,Calm,-,N/A,,Overcast,0,2013-10-14 11:49:00
7:51 AM,39.2,37.4,93,30.38,3.0,Calm,Calm,-,N/A,,Overcast,0,2013-10-14 11:51:00
7:53 AM,39.9,37.9,93,30.39,2.0,Calm,Calm,-,N/A,,Overcast,0,2013-10-14 11:53:00
7:55 AM,41.0,39.2,93,30.38,0.8,Calm,Calm,-,N/A,,Mist,0,2013-10-14 11:55:00
8:14 AM,42.8,41.0,93,30.38,1.2,Calm,Calm,-,N/A,,Overcast,0,2013-10-14 12:14:00
8:23 AM,42.8,41.0,93,30.39,3.0,Calm,Calm,-,N/A,,Mostly Cloudy,0,2013-10-14 12:23:00
8:31 AM,44.6,41.0,87,30.39,4.0,Calm,Calm,-,N/A,,Scattered Clouds,0,2013-10-14 12:31:00
8:53 AM,46.0,43.0,89,30.39,5.0,Calm,Calm,-,N/A,,Clear,0,2013-10-14 12:53:00
9:53 AM,51.1,44.1,77,30.39,8.0,NE,3.5,-,N/A,,Clear,50,2013-10-14 13:53:00
10:53 AM,55.9,45.0,67,30.37,10.0,Calm,Calm,-,N/A,,Clear,0,2013-10-14 14:53:00
11:53 AM,57.9,45.0,62,30.35,10.0,Calm,Calm,-,N/A,,Clear,0,2013-10-14 15:53:00
12:53 PM,60.1,45.0,57,30.32,10.0,Calm,Calm,-,N/A,,Clear,0,2013-10-14 16:53:00
1:53 PM,63.0,46.0,54,30.30,10.0,Calm,Calm,-,N/A,,Clear,0,2013-10-14 17:53:00
2:53 PM,66.0,46.0,48,30.28,10.0,Calm,Calm,-,N/A,,Clear,0,2013-10-14 18:53:00
3:53 PM,66.0,46.0,48,30.26,10.0,Calm,Calm,-,N/A,,Clear,0,2013-10-14 19:53:00
4:53 PM,62.1,48.0,60,30.26,10.0,South,9.2,-,N/A,,Clear,170,2013-10-14 20:53:00
5:53 PM,60.1,48.0,64,30.28,10.0,Calm,Calm,-,N/A,,Clear,0,2013-10-14 21:53:00
6:53 PM,55.9,48.0,75,30.30,10.0,Calm,Calm,-,N/A,,Clear,0,2013-10-14 22:53:00
7:53 PM,55.0,48.0,77,30.30,10.0,Calm,Calm,-,N/A,,Clear,0,2013-10-14 23:53:00
8:53 PM,51.1,46.0,83,30.29,10.0,Calm,Calm,-,N/A,,Clear,0,2013-10-15 00:53:00
9:53 PM,48.9,46.0,90,30.29,9.0,Calm,Calm,-,N/A,,Clear,0,2013-10-15 01:53:00
10:53 PM,48.0,45.0,89,30.30,10.0,SW,3.5,-,N/A,,Clear,230,2013-10-15 02:53:00
11:53 PM,46.9,44.1,90,30.29,9.0,Calm,Calm,-,N/A,,Clear,0,2013-10-15 03:53:00